Time,TemperatureF,DewpointF,PressureIn,WindDirection,WindDirectionDegrees,WindSpeedMPH,WindSpeedGustMPH,Humidity,HourlyPrecipIn,Conditions,Clouds,dailyrainin,SoftwareType,DateUTC
2013-03-13 00:00:00,56.6,29.2,29.21,NNE,25,1.5,3.1,35,0.00,,,0.00,WSDL version 420,2013-03-13 05:00:00,
2013-03-13 00:05:00,56.4,29.1,29.21,NE,35,1.2,2.5,35,0.00,,,0.00,WSDL version 420,2013-03-13 05:05:00,
2013-03-13 00:10:00,56.2,28.9,29.21,NNE,25,1.3,2.7,35,0.00,,,0.00,WSDL version 420,2013-03-13 05:10:00,
2013-03-13 00:15:00,55.9,28.7,29.21,NE,45,0.7,2.7,35,0.00,,,0.00,WSDL version 420,2013-03-13 05:15:00,
2013-03-13 00:20:00,55.7,28.5,29.21,NNE,23,1.0,2.0,35,0.00,,,0.00,WSDL version 420,2013-03-13 05:20:00,
2013-03-13 00:25:00,55.6,28.4,29.21,NNE,23,1.2,2.0,35,0.00,,,0.00,WSDL version 420,2013-03-13 05:25:00,
2013-03-13 00:30:00,55.6,28.4,29.21,NNE,18,1.2,2.9,35,0.00,,,0.00,WSDL version 420,2013-03-13 05:30:00,
2013-03-13 00:36:00,55.4,28.2,29.21,NNE,25,1.2,2.9,35,0.00,,,0.00,WSDL version 420,2013-03-13 05:36:00,
2013-03-13 00:45:00,55.2,28.8,29.23,NNE,31,2.0,3.6,36,0.00,,,0.00,WSDL version 420,2013-03-13 05:45:00,
2013-03-13 00:55:00,55.0,28.0,29.23,NE,45,1.6,3.4,35,0.00,,,0.00,WSDL version 420,2013-03-13 05:55:00,
2013-03-13 01:00:00,54.9,27.8,29.23,NE,42,1.3,4.0,35,0.00,,,0.00,WSDL version 420,2013-03-13 06:00:00,
2013-03-13 01:05:00,54.7,27.6,29.23,NNE,28,1.1,4.0,35,0.00,,,0.00,WSDL version 420,2013-03-13 06:05:00,
2013-03-13 01:10:00,54.4,27.4,29.23,NNE,28,1.2,2.9,35,0.00,,,0.00,WSDL version 420,2013-03-13 06:10:00,
2013-03-13 01:17:00,54.1,27.2,29.23,NNE,23,0.4,3.1,36,0.00,,,0.00,WSDL version 420,2013-03-13 06:17:00,
2013-03-13 01:23:00,53.9,27.6,29.23,NNE,23,1.0,2.0,36,0.00,,,0.00,WSDL version 420,2013-03-13 06:23:00,
2013-03-13 01:32:00,53.5,27.2,29.23,NE,42,0.9,1.6,36,0.00,,,0.00,WSDL version 420,2013-03-13 06:32:00,
2013-03-13 01:37:00,53.2,26.9,29.23,NNE,23,1.1,1.6,36,0.00,,,0.00,WSDL version 420,2013-03-13 06:37:00,
2013-03-13 01:42:00,53.0,26.8,29.23,NNE,23,1.0,2.2,36,0.00,,,0.00,WSDL version 420,2013-03-13 06:42:00,
2013-03-13 01:47:00,52.9,26.7,29.23,NE,40,1.1,2.2,36,0.00,,,0.00,WSDL version 420,2013-03-13 06:47:00,
2013-03-13 01:52:00,52.7,26.5,29.23,NE,56,1.0,2.2,36,0.00,,,0.00,WSDL version 420,2013-03-13 06:52:00,
2013-03-13 01:57:00,52.7,26.5,29.23,NE,55,1.1,2.2,36,0.00,,,0.00,WSDL version 420,2013-03-13 06:57:00,
2013-03-13 02:02:00,52.7,26.5,29.23,NE,53,1.4,2.9,36,0.00,,,0.00,WSDL version 420,2013-03-13 07:02:00,
2013-03-13 02:07:00,52.7,26.5,29.23,NE,40,1.1,2.9,36,0.00,,,0.00,WSDL version 420,2013-03-13 07:07:00,
2013-03-13 02:12:00,52.7,26.5,29.23,NE,43,1.2,2.9,36,0.00,,,0.00,WSDL version 420,2013-03-13 07:12:00,
2013-03-13 02:17:00,52.6,26.4,29.23,ENE,58,1.1,3.4,36,0.00,,,0.00,WSDL version 420,2013-03-13 07:17:00,
2013-03-13 02:22:00,52.4,26.3,29.23,NE,38,1.3,3.4,36,0.00,,,0.00,WSDL version 420,2013-03-13 07:22:00,
2013-03-13 02:27:00,52.3,26.2,29.23,NNE,31,1.3,3.6,36,0.00,,,0.00,WSDL version 420,2013-03-13 07:27:00,
2013-03-13 02:32:00,52.2,26.0,29.23,NNE,31,0.7,3.6,36,0.00,,,0.00,WSDL version 420,2013-03-13 07:32:00,
2013-03-13 02:37:00,52.0,25.8,29.23,NNE,26,1.2,2.7,36,0.00,,,0.00,WSDL version 420,2013-03-13 07:37:00,
2013-03-13 02:42:00,51.8,25.8,29.23,NE,43,0.3,2.5,37,0.00,,,0.00,WSDL version 420,2013-03-13 07:42:00,
2013-03-13 02:47:00,51.6,26.2,29.26,NNE,28,1.1,2.5,37,0.00,,,0.00,WSDL version 420,2013-03-13 07:47:00,
2013-03-13 02:52:00,51.5,26.1,29.26,NE,39,1.1,2.5,37,0.00,,,0.00,WSDL version 420,2013-03-13 07:52:00,
2013-03-13 02:57:00,51.3,25.9,29.26,NE,43,1.1,1.6,37,0.00,,,0.00,WSDL version 420,2013-03-13 07:57:00,
2013-03-13 03:02:00,51.1,25.7,29.26,NE,45,1.0,1.6,37,0.00,,,0.00,WSDL version 420,2013-03-13 08:02:00,
2013-03-13 03:09:00,50.8,25.5,29.26,ENE,65,0.9,1.6,37,0.00,,,0.00,WSDL version 420,2013-03-13 08:09:00,
2013-03-13 03:14:00,50.6,25.3,29.23,NNE,23,0.5,1.6,37,0.00,,,0.00,WSDL version 420,2013-03-13 08:14:00,
2013-03-13 03:19:00,50.5,25.2,29.23,NNE,23,0.4,1.6,37,0.00,,,0.00,WSDL version 420,2013-03-13 08:19:00,
2013-03-13 03:24:00,50.4,25.1,29.23,NE,45,0.9,2.5,37,0.00,,,0.00,WSDL version 420,2013-03-13 08:24:00,
2013-03-13 03:29:00,50.2,25.0,29.26,NNE,26,0.6,2.5,37,0.00,,,0.00,WSDL version 420,2013-03-13 08:29:00,
2013-03-13 03:34:00,50.2,24.9,29.26,NNE,23,0.9,2.7,37,0.00,,,0.00,WSDL version 420,2013-03-13 08:34:00,
2013-03-13 03:44:00,50.2,24.9,29.26,NE,45,0.2,2.2,37,0.00,,,0.00,WSDL version 420,2013-03-13 08:44:00,
2013-03-13 03:49:00,50.2,24.9,29.26,NNW,338,0.0,2.2,37,0.00,,,0.00,WSDL version 420,2013-03-13 08:49:00,
2013-03-13 03:54:00,49.9,25.0,29.26,NNW,338,0.0,1.6,38,0.00,,,0.00,WSDL version 420,2013-03-13 08:54:00,
2013-03-13 03:59:00,49.5,25.0,29.26,NNW,338,0.0,0.9,38,0.00,,,0.00,WSDL version 420,2013-03-13 08:59:00,
2013-03-13 04:04:00,49.3,24.8,29.26,NNE,23,0.0,0.0,38,0.00,,,0.00,WSDL version 420,2013-03-13 09:04:00,
2013-03-13 04:09:00,49.1,24.6,29.26,NNE,23,0.0,0.0,38,0.00,,,0.00,WSDL version 420,2013-03-13 09:09:00,
2013-03-13 04:14:00,48.6,24.1,29.26,NNE,23,0.0,0.0,38,0.00,,,0.00,WSDL version 420,2013-03-13 09:14:00,
2013-03-13 04:19:00,47.9,23.7,29.26,NNE,23,0.0,0.0,39,0.00,,,0.00,WSDL version 420,2013-03-13 09:19:00,
2013-03-13 04:24:00,47.4,23.7,29.26,NNE,23,0.0,0.0,39,0.00,,,0.00,WSDL version 420,2013-03-13 09:24:00,
2013-03-13 04:29:00,47.1,23.4,29.26,NNE,23,0.0,0.0,39,0.00,,,0.00,WSDL version 420,2013-03-13 09:29:00,
2013-03-13 04:34:00,46.9,23.2,29.26,NNE,23,0.0,0.0,39,0.00,,,0.00,WSDL version 420,2013-03-13 09:34:00,
2013-03-13 04:39:00,46.7,23.1,29.26,NNE,23,0.0,0.0,39,0.00,,,0.00,WSDL version 420,2013-03-13 09:39:00,
2013-03-13 04:44:00,46.4,23.2,29.26,NNE,23,0.0,0.0,40,0.00,,,0.00,WSDL version 420,2013-03-13 09:44:00,
2013-03-13 04:49:00,45.9,22.9,29.26,NNE,23,0.0,0.0,40,0.00,,,0.00,WSDL version 420,2013-03-13 09:49:00,
2013-03-13 04:54:00,45.4,22.5,29.26,NNE,23,0.0,0.0,40,0.00,,,0.00,WSDL version 420,2013-03-13 09:54:00,
2013-03-13 04:59:00,45.4,22.9,29.26,NNE,23,0.0,0.0,41,0.00,,,0.00,WSDL version 420,2013-03-13 09:59:00,
2013-03-13 05:04:00,45.0,22.8,29.26,NNE,23,0.0,0.0,41,0.00,,,0.00,WSDL version 420,2013-03-13 10:04:00,
2013-03-13 05:09:00,44.8,22.7,29.26,NNE,23,0.0,0.0,42,0.00,,,0.00,WSDL version 420,2013-03-13 10:09:00,
2013-03-13 05:14:00,44.6,22.9,29.26,NNE,23,0.0,0.0,42,0.00,,,0.00,WSDL version 420,2013-03-13 10:14:00,
2013-03-13 05:19:00,44.4,22.7,29.26,NNE,23,0.0,0.0,42,0.00,,,0.00,WSDL version 420,2013-03-13 10:19:00,
2013-03-13 05:24:00,44.2,22.8,29.26,NNE,23,0.0,0.0,43,0.00,,,0.00,WSDL version 420,2013-03-13 10:24:00,
2013-03-13 05:29:00,43.9,22.9,29.26,NNE,23,0.0,0.0,43,0.00,,,0.00,WSDL version 420,2013-03-13 10:29:00,
2013-03-13 05:34:00,43.8,22.8,29.26,NNE,23,0.0,0.0,43,0.00,,,0.00,WSDL version 420,2013-03-13 10:34:00,
2013-03-13 05:39:00,44.0,22.9,29.26,NNE,23,0.0,0.0,43,0.00,,,0.00,WSDL version 420,2013-03-13 10:39:00,
2013-03-13 05:44:00,44.3,22.9,29.26,NNE,23,0.0,0.0,42,0.00,,,0.00,WSDL version 420,2013-03-13 10:44:00,
2013-03-13 05:49:00,45.1,23.4,29.26,NNE,23,0.0,0.0,42,0.00,,,0.00,WSDL version 420,2013-03-13 10:49:00,
2013-03-13 05:54:00,45.6,23.8,29.26,NNE,23,0.0,0.0,41,0.00,,,0.00,WSDL version 420,2013-03-13 10:54:00,
2013-03-13 05:59:00,46.0,23.6,29.26,NNE,28,0.0,1.1,41,0.00,,,0.00,WSDL version 420,2013-03-13 10:59:00,
2013-03-13 06:04:00,46.3,23.9,29.26,NE,45,0.0,1.1,41,0.00,,,0.00,WSDL version 420,2013-03-13 11:04:00,
2013-03-13 06:09:00,46.5,24.1,29.26,NE,45,0.4,1.3,41,0.00,,,0.00,WSDL version 420,2013-03-13 11:09:00,
2013-03-13 06:14:00,46.9,24.4,29.26,NNE,23,0.0,1.3,41,0.00,,,0.00,WSDL version 420,2013-03-13 11:14:00,
2013-03-13 06:19:00,47.1,24.6,29.26,NNE,23,0.0,1.3,41,0.00,,,0.00,WSDL version 420,2013-03-13 11:19:00,
2013-03-13 06:24:00,47.2,24.7,29.26,NE,38,0.9,1.6,41,0.00,,,0.00,WSDL version 420,2013-03-13 11:24:00,
2013-03-13 06:29:00,47.3,24.7,29.29,NNE,23,0.4,1.6,41,0.00,,,0.00,WSDL version 420,2013-03-13 11:29:00,
2013-03-13 06:34:00,47.5,24.6,29.29,NNE,33,0.5,1.6,40,0.00,,,0.00,WSDL version 420,2013-03-13 11:34:00,
2013-03-13 06:39:00,47.5,24.4,29.29,NNE,23,0.0,1.6,40,0.00,,,0.00,WSDL version 420,2013-03-13 11:39:00,
2013-03-13 06:44:00,47.7,24.5,29.29,NNE,23,0.0,1.1,40,0.00,,,0.00,WSDL version 420,2013-03-13 11:44:00,
2013-03-13 06:49:00,47.6,24.5,29.29,NNE,23,0.0,1.1,40,0.00,,,0.00,WSDL version 420,2013-03-13 11:49:00,
2013-03-13 06:54:00,47.5,24.4,29.29,NNE,23,0.0,1.1,40,0.00,,,0.00,WSDL version 420,2013-03-13 11:54:00,
2013-03-13 06:59:00,47.5,24.4,29.29,NNE,23,0.0,0.9,40,0.00,,,0.00,WSDL version 420,2013-03-13 11:59:00,
2013-03-13 07:04:00,47.5,24.4,29.29,NNE,23,0.0,0.9,40,0.00,,,0.00,WSDL version 420,2013-03-13 12:04:00,
2013-03-13 07:09:00,47.5,24.4,29.29,NNE,23,0.4,1.1,40,0.00,,,0.00,WSDL version 420,2013-03-13 12:09:00,
2013-03-13 07:14:00,47.5,24.4,29.29,NNE,23,0.0,1.1,40,0.00,,,0.00,WSDL version 420,2013-03-13 12:14:00,
2013-03-13 07:19:00,47.3,24.2,29.29,NE,45,0.0,1.1,40,0.00,,,0.00,WSDL version 420,2013-03-13 12:19:00,
2013-03-13 07:24:00,47.3,24.2,29.29,NE,40,0.0,1.1,40,0.00,,,0.00,WSDL version 420,2013-03-13 12:24:00,
2013-03-13 07:29:00,47.3,24.2,29.32,NNE,23,0.2,1.3,40,0.00,,,0.00,WSDL version 420,2013-03-13 12:29:00,
2013-03-13 07:34:00,47.3,24.2,29.32,NNE,30,0.2,1.3,40,0.00,,,0.00,WSDL version 420,2013-03-13 12:34:00,
2013-03-13 07:39:00,47.3,24.2,29.32,ENE,77,0.0,1.3,40,0.00,,,0.00,WSDL version 420,2013-03-13 12:39:00,
2013-03-13 07:44:00,47.1,24.0,29.32,ENE,68,0.0,1.1,40,0.00,,,0.00,WSDL version 420,2013-03-13 12:44:00,
2013-03-13 07:49:00,46.5,23.9,29.32,ENE,68,0.0,0.0,41,0.00,,,0.00,WSDL version 420,2013-03-13 12:49:00,
2013-03-13 07:54:00,46.1,23.7,29.32,ENE,68,0.0,0.0,41,0.00,,,0.00,WSDL version 420,2013-03-13 12:54:00,
2013-03-13 07:59:00,45.7,23.4,29.32,ENE,68,0.0,0.0,41,0.00,,,0.00,WSDL version 420,2013-03-13 12:59:00,
2013-03-13 08:04:00,45.4,23.2,29.32,ENE,68,0.0,0.0,42,0.00,,,0.00,WSDL version 420,2013-03-13 13:04:00,
2013-03-13 08:09:00,45.3,23.6,29.32,ENE,68,0.0,0.0,42,0.00,,,0.00,WSDL version 420,2013-03-13 13:09:00,
2013-03-13 08:14:00,45.3,23.6,29.32,ENE,68,0.0,0.0,42,0.00,,,0.00,WSDL version 420,2013-03-13 13:14:00,
2013-03-13 08:19:00,45.3,24.0,29.32,ENE,68,0.0,0.0,43,0.00,,,0.00,WSDL version 420,2013-03-13 13:19:00,
2013-03-13 08:24:00,45.7,24.5,29.32,ENE,68,0.0,0.0,43,0.00,,,0.00,WSDL version 420,2013-03-13 13:24:00,
2013-03-13 08:29:00,46.4,25.0,29.32,ENE,68,0.0,0.0,42,0.00,,,0.00,WSDL version 420,2013-03-13 13:29:00,
2013-03-13 08:34:00,47.3,25.4,29.32,East,93,0.0,0.9,42,0.00,,,0.00,WSDL version 420,2013-03-13 13:34:00,
2013-03-13 08:39:00,48.3,25.9,29.32,NE,35,0.0,1.1,41,0.00,,,0.00,WSDL version 420,2013-03-13 13:39:00,
2013-03-13 08:44:00,49.1,26.5,29.32,NE,45,0.0,1.3,41,0.00,,,0.00,WSDL version 420,2013-03-13 13:44:00,
2013-03-13 08:49:00,50.2,27.4,29.32,NE,37,0.1,2.5,41,0.00,,,0.00,WSDL version 420,2013-03-13 13:49:00,
2013-03-13 08:54:00,51.4,28.0,29.32,NE,45,0.3,2.5,40,0.00,,,0.00,WSDL version 420,2013-03-13 13:54:00,
2013-03-13 08:59:00,52.3,28.5,29.35,NNE,26,1.3,2.5,39,0.00,,,0.00,WSDL version 420,2013-03-13 13:59:00,
2013-03-13 09:04:00,53.7,29.3,29.35,ENE,63,0.7,2.5,39,0.00,,,0.00,WSDL version 420,2013-03-13 14:04:00,
2013-03-13 09:09:00,55.1,30.3,29.35,NNE,25,1.1,3.1,38,0.00,,,0.00,WSDL version 420,2013-03-13 14:09:00,
2013-03-13 09:14:00,56.6,31.1,29.35,NE,50,1.4,3.4,37,0.00,,,0.00,WSDL version 420,2013-03-13 14:14:00,
2013-03-13 09:19:00,57.5,31.5,29.35,ENE,60,1.9,3.8,37,0.00,,,0.00,WSDL version 420,2013-03-13 14:19:00,
2013-03-13 09:24:00,58.6,32.2,29.35,NE,51,1.5,4.3,36,0.00,,,0.00,WSDL version 420,2013-03-13 14:24:00,
2013-03-13 09:29:00,59.3,32.4,29.35,ENE,60,2.4,4.3,36,0.00,,,0.00,WSDL version 420,2013-03-13 14:29:00,
2013-03-13 09:34:00,60.3,33.0,29.35,East,79,1.6,3.4,35,0.00,,,0.00,WSDL version 420,2013-03-13 14:34:00,
2013-03-13 09:39:00,61.3,33.4,29.35,NE,39,2.8,3.1,35,0.00,,,0.00,WSDL version 420,2013-03-13 14:39:00,
2013-03-13 09:44:00,61.2,33.1,29.35,NNE,23,3.0,5.8,34,0.00,,,0.00,WSDL version 420,2013-03-13 14:44:00,
2013-03-13 09:49:00,62.0,33.4,29.35,NE,53,1.9,5.8,34,0.00,,,0.00,WSDL version 420,2013-03-13 14:49:00,
2013-03-13 09:54:00,63.0,34.2,29.35,SW,225,1.6,3.8,34,0.00,,,0.00,WSDL version 420,2013-03-13 14:54:00,
2013-03-13 09:59:00,62.7,34.0,29.38,NNE,29,1.6,4.5,34,0.00,,,0.00,WSDL version 420,2013-03-13 14:59:00,
2013-03-13 10:04:00,63.2,34.1,29.38,ENE,63,2.3,4.7,33,0.00,,,0.00,WSDL version 420,2013-03-13 15:04:00,
2013-03-13 10:09:00,64.0,34.3,29.38,ENE,68,2.4,4.7,33,0.00,,,0.00,WSDL version 420,2013-03-13 15:09:00,
2013-03-13 10:14:00,64.6,34.7,29.35,ENE,63,2.1,5.4,32,0.00,,,0.00,WSDL version 420,2013-03-13 15:14:00,
2013-03-13 10:19:00,64.6,34.6,29.35,ENE,73,2.4,5.4,33,0.00,,,0.00,WSDL version 420,2013-03-13 15:19:00,
2013-03-13 10:24:00,65.3,34.6,29.35,NE,40,3.1,6.3,31,0.00,,,0.00,WSDL version 420,2013-03-13 15:24:00,
2013-03-13 10:29:00,65.7,34.0,29.35,NE,35,3.4,6.3,30,0.00,,,0.00,WSDL version 420,2013-03-13 15:29:00,
2013-03-13 10:34:00,66.4,34.7,29.35,East,96,2.2,5.6,30,0.00,,,0.00,WSDL version 420,2013-03-13 15:34:00,
2013-03-13 10:39:00,66.3,33.4,29.35,NNE,33,3.0,5.8,29,0.00,,,0.00,WSDL version 420,2013-03-13 15:39:00,
2013-03-13 10:44:00,66.5,33.3,29.38,NE,56,3.4,5.8,29,0.00,,,0.00,WSDL version 420,2013-03-13 15:44:00,
2013-03-13 10:49:00,66.2,32.6,29.38,ENE,70,3.0,5.6,28,0.00,,,0.00,WSDL version 420,2013-03-13 15:49:00,
2013-03-13 10:54:00,65.9,32.1,29.38,SW,228,2.1,5.6,28,0.00,,,0.00,WSDL version 420,2013-03-13 15:54:00,
2013-03-13 10:59:00,66.6,32.5,29.38,ENE,58,3.1,5.6,28,0.00,,,0.00,WSDL version 420,2013-03-13 15:59:00,
2013-03-13 11:04:00,66.5,31.9,29.38,ENE,58,3.2,4.9,27,0.00,,,0.00,WSDL version 420,2013-03-13 16:04:00,
2013-03-13 11:09:00,66.6,31.9,29.38,ENE,70,1.7,4.9,27,0.00,,,0.00,WSDL version 420,2013-03-13 16:09:00,
2013-03-13 11:14:00,66.6,31.6,29.38,NNE,30,3.1,5.6,27,0.00,,,0.00,WSDL version 420,2013-03-13 16:14:00,
2013-03-13 11:19:00,66.4,31.4,29.38,North,357,2.3,5.6,27,0.00,,,0.00,WSDL version 420,2013-03-13 16:19:00,
2013-03-13 11:24:00,67.2,32.3,29.38,NE,50,2.9,4.7,27,0.00,,,0.00,WSDL version 420,2013-03-13 16:24:00,
2013-03-13 11:29:00,67.7,32.5,29.38,East,98,2.3,4.7,27,0.00,,,0.00,WSDL version 420,2013-03-13 16:29:00,
2013-03-13 11:34:00,67.8,32.7,29.38,SSW,208,2.0,4.3,27,0.00,,,0.00,WSDL version 420,2013-03-13 16:34:00,
2013-03-13 11:39:00,67.3,32.2,29.38,NNE,30,2.7,4.0,27,0.00,,,0.00,WSDL version 420,2013-03-13 16:39:00,
2013-03-13 11:44:00,67.2,32.1,29.38,ENE,76,2.0,4.0,27,0.00,,,0.00,WSDL version 420,2013-03-13 16:44:00,
2013-03-13 11:49:00,67.7,32.5,29.38,ENE,58,2.5,5.8,27,0.00,,,0.00,WSDL version 420,2013-03-13 16:49:00,
2013-03-13 11:54:00,68.3,33.1,29.38,NE,34,2.6,5.8,27,0.00,,,0.00,WSDL version 420,2013-03-13 16:54:00,
2013-03-13 11:59:00,68.7,32.5,29.35,NE,40,2.7,5.8,26,0.00,,,0.00,WSDL version 420,2013-03-13 16:59:00,
2013-03-13 12:04:00,69.0,32.7,29.35,NE,53,1.7,5.8,26,0.00,,,0.00,WSDL version 420,2013-03-13 17:04:00,
2013-03-13 12:09:00,69.7,33.2,29.35,East,100,1.5,5.6,26,0.00,,,0.00,WSDL version 420,2013-03-13 17:09:00,
2013-03-13 12:14:00,69.7,33.1,29.35,SE,133,1.4,5.6,25,0.00,,,0.00,WSDL version 420,2013-03-13 17:14:00,
2013-03-13 12:19:00,70.1,32.7,29.35,West,273,2.1,4.3,25,0.00,,,0.00,WSDL version 420,2013-03-13 17:19:00,
2013-03-13 12:24:00,70.9,33.4,29.35,South,183,2.5,4.7,25,0.00,,,0.00,WSDL version 420,2013-03-13 17:24:00,
2013-03-13 12:29:00,70.8,33.3,29.35,SW,231,2.2,4.7,25,0.00,,,0.00,WSDL version 420,2013-03-13 17:29:00,
2013-03-13 12:34:00,71.3,33.3,29.35,NNE,30,2.2,4.0,24,0.00,,,0.00,WSDL version 420,2013-03-13 17:34:00,
2013-03-13 12:39:00,71.7,33.0,29.35,SW,219,1.4,3.8,24,0.00,,,0.00,WSDL version 420,2013-03-13 17:39:00,
2013-03-13 12:44:00,72.2,33.5,29.35,NE,48,2.7,4.7,24,0.00,,,0.00,WSDL version 420,2013-03-13 17:44:00,
2013-03-13 12:49:00,72.1,33.3,29.35,WNW,298,1.7,4.7,24,0.00,,,0.00,WSDL version 420,2013-03-13 17:49:00,
2013-03-13 12:54:00,72.4,33.6,29.35,SE,138,1.9,3.6,24,0.00,,,0.00,WSDL version 420,2013-03-13 17:54:00,
2013-03-13 12:59:00,72.5,33.5,29.35,NW,315,1.9,3.1,23,0.00,,,0.00,WSDL version 420,2013-03-13 17:59:00,
2013-03-13 13:04:00,72.1,33.3,29.35,NNE,31,2.1,4.3,24,0.00,,,0.00,WSDL version 420,2013-03-13 18:04:00,
2013-03-13 13:09:00,72.9,34.0,29.35,South,178,1.8,4.3,24,0.00,,,0.00,WSDL version 420,2013-03-13 18:09:00,
2013-03-13 13:14:00,72.9,34.0,29.32,East,84,1.2,4.3,24,0.00,,,0.00,WSDL version 420,2013-03-13 18:14:00,
2013-03-13 13:19:00,72.7,33.5,29.32,SSE,163,2.9,3.8,23,0.00,,,0.00,WSDL version 420,2013-03-13 18:19:00,
2013-03-13 13:24:00,72.0,32.9,29.32,SSW,195,2.5,4.9,23,0.00,,,0.00,WSDL version 420,2013-03-13 18:24:00,
2013-03-13 13:29:00,71.7,32.2,29.32,SW,225,1.2,4.9,23,0.00,,,0.00,WSDL version 420,2013-03-13 18:29:00,
2013-03-13 13:34:00,71.9,32.6,29.32,SW,218,2.1,3.8,24,0.00,,,0.00,WSDL version 420,2013-03-13 18:34:00,
2013-03-13 13:39:00,71.6,32.5,29.32,ESE,113,1.8,3.8,24,0.00,,,0.00,WSDL version 420,2013-03-13 18:39:00,
2013-03-13 13:44:00,71.8,33.1,29.32,SW,225,2.3,3.6,24,0.00,,,0.00,WSDL version 420,2013-03-13 18:44:00,
2013-03-13 13:49:00,71.9,32.1,29.32,West,270,2.0,3.8,23,0.00,,,0.00,WSDL version 420,2013-03-13 18:49:00,
2013-03-13 13:54:00,71.7,31.9,29.32,ENE,68,1.2,3.8,23,0.00,,,0.00,WSDL version 420,2013-03-13 18:54:00,
2013-03-13 13:59:00,72.0,32.2,29.32,SSW,193,1.3,3.4,23,0.00,,,0.00,WSDL version 420,2013-03-13 18:59:00,
2013-03-13 14:04:00,72.2,32.6,29.32,SSW,203,2.1,4.7,24,0.00,,,0.00,WSDL version 420,2013-03-13 19:04:00,
2013-03-13 14:09:00,72.1,32.3,29.32,SSW,205,2.0,4.7,23,0.00,,,0.00,WSDL version 420,2013-03-13 19:09:00,
2013-03-13 14:14:00,72.3,32.5,29.29,SSW,205,1.7,4.0,23,0.00,,,0.00,WSDL version 420,2013-03-13 19:14:00,
2013-03-13 14:19:00,72.6,32.7,29.29,South,178,1.4,3.4,23,0.00,,,0.00,WSDL version 420,2013-03-13 19:19:00,
2013-03-13 14:24:00,72.8,32.9,29.29,SSW,208,2.1,3.6,23,0.00,,,0.00,WSDL version 420,2013-03-13 19:24:00,
2013-03-13 14:29:00,72.4,32.6,29.29,SW,225,1.6,3.6,23,0.00,,,0.00,WSDL version 420,2013-03-13 19:29:00,
2013-03-13 14:34:00,72.4,32.6,29.29,NNE,25,1.9,3.6,23,0.00,,,0.00,WSDL version 420,2013-03-13 19:34:00,
2013-03-13 14:39:00,72.7,32.8,29.29,SW,219,2.0,3.6,23,0.00,,,0.00,WSDL version 420,2013-03-13 19:39:00,
2013-03-13 14:44:00,73.2,33.2,29.29,West,260,0.3,3.4,23,0.00,,,0.00,WSDL version 420,2013-03-13 19:44:00,
2013-03-13 14:54:00,73.2,33.2,29.29,SSE,163,1.0,3.8,23,0.00,,,0.00,WSDL version 420,2013-03-13 19:54:00,
2013-03-13 14:59:00,73.0,33.1,29.29,South,188,1.6,3.4,23,0.00,,,0.00,WSDL version 420,2013-03-13 19:59:00,
2013-03-13 15:04:00,73.4,33.4,29.29,SW,223,1.9,3.4,23,0.00,,,0.00,WSDL version 420,2013-03-13 20:04:00,
2013-03-13 15:09:00,73.6,32.9,29.29,NNE,23,0.8,3.6,23,0.00,,,0.00,WSDL version 420,2013-03-13 20:09:00,
2013-03-13 15:14:00,73.5,33.1,29.29,SSE,152,1.0,3.6,23,0.00,,,0.00,WSDL version 420,2013-03-13 20:14:00,
2013-03-13 15:19:00,74.0,33.5,29.29,NE,55,1.9,4.0,22,0.00,,,0.00,WSDL version 420,2013-03-13 20:19:00,
2013-03-13 15:24:00,73.7,32.8,29.29,NNE,28,1.0,4.0,23,0.00,,,0.00,WSDL version 420,2013-03-13 20:24:00,
2013-03-13 15:29:00,73.8,32.8,29.26,SSW,208,1.5,3.6,22,0.00,,,0.00,WSDL version 420,2013-03-13 20:29:00,
2013-03-13 15:34:00,74.0,33.1,29.26,NE,35,1.2,2.9,22,0.00,,,0.00,WSDL version 420,2013-03-13 20:34:00,
2013-03-13 15:39:00,73.6,32.5,29.26,SE,130,1.7,3.1,22,0.00,,,0.00,WSDL version 420,2013-03-13 20:39:00,
2013-03-13 15:44:00,73.5,32.5,29.26,SSW,210,0.9,3.1,22,0.00,,,0.00,WSDL version 420,2013-03-13 20:44:00,
2013-03-13 15:49:00,74.0,32.8,29.26,SE,127,1.6,4.3,22,0.00,,,0.00,WSDL version 420,2013-03-13 20:49:00,
2013-03-13 15:54:00,74.4,33.1,29.26,East,88,1.5,4.3,22,0.00,,,0.00,WSDL version 420,2013-03-13 20:54:00,
2013-03-13 15:59:00,74.3,33.1,29.26,East,80,1.9,4.0,22,0.00,,,0.00,WSDL version 420,2013-03-13 20:59:00,
2013-03-13 16:04:00,74.2,33.0,29.26,SSW,195,2.1,4.3,22,0.00,,,0.00,WSDL version 420,2013-03-13 21:04:00,
2013-03-13 16:09:00,74.3,33.0,29.26,NE,45,1.8,4.3,22,0.00,,,0.00,WSDL version 420,2013-03-13 21:09:00,
2013-03-13 16:14:00,74.2,32.9,29.26,ENE,58,2.5,4.0,22,0.00,,,0.00,WSDL version 420,2013-03-13 21:14:00,
2013-03-13 16:19:00,74.1,32.8,29.26,ENE,78,1.1,4.0,22,0.00,,,0.00,WSDL version 420,2013-03-13 21:19:00,
2013-03-13 16:24:00,74.6,33.2,29.26,ENE,70,1.2,3.1,22,0.00,,,0.00,WSDL version 420,2013-03-13 21:24:00,
2013-03-13 16:29:00,75.0,33.6,29.23,SW,225,2.1,3.4,22,0.00,,,0.00,WSDL version 420,2013-03-13 21:29:00,
2013-03-13 16:34:00,75.1,33.7,29.23,ESE,119,1.1,4.0,22,0.00,,,0.00,WSDL version 420,2013-03-13 21:34:00,
2013-03-13 16:39:00,74.7,33.4,29.23,NE,53,1.6,4.0,22,0.00,,,0.00,WSDL version 420,2013-03-13 21:39:00,
2013-03-13 16:44:00,74.7,33.3,29.23,WSW,248,0.2,4.0,22,0.00,,,0.00,WSDL version 420,2013-03-13 21:44:00,
2013-03-13 16:49:00,75.3,33.9,29.23,SW,219,1.4,4.3,22,0.00,,,0.00,WSDL version 420,2013-03-13 21:49:00,
2013-03-13 16:54:00,75.8,34.1,29.23,South,190,1.5,4.3,22,0.00,,,0.00,WSDL version 420,2013-03-13 21:54:00,
2013-03-13 16:59:00,75.7,33.4,29.26,NE,51,2.3,3.8,21,0.00,,,0.00,WSDL version 420,2013-03-13 21:59:00,
2013-03-13 17:04:00,75.4,33.5,29.26,NE,35,0.9,3.8,22,0.00,,,0.00,WSDL version 420,2013-03-13 22:04:00,
2013-03-13 17:09:00,75.7,34.2,29.26,SE,127,1.8,3.1,22,0.00,,,0.00,WSDL version 420,2013-03-13 22:09:00,
2013-03-13 17:14:00,75.6,33.5,29.23,West,280,1.1,3.1,21,0.00,,,0.00,WSDL version 420,2013-03-13 22:14:00,
2013-03-13 17:19:00,75.7,33.3,29.23,NE,34,0.6,3.4,21,0.00,,,0.00,WSDL version 420,2013-03-13 22:19:00,
2013-03-13 17:29:00,75.7,34.2,29.23,ENE,63,1.5,3.4,22,0.00,,,0.00,WSDL version 420,2013-03-13 22:29:00,
2013-03-13 17:34:00,75.3,33.2,29.23,ENE,73,1.3,3.4,22,0.00,,,0.00,WSDL version 420,2013-03-13 22:34:00,
2013-03-13 17:39:00,74.9,33.3,29.23,ESE,108,0.5,3.4,22,0.00,,,0.00,WSDL version 420,2013-03-13 22:39:00,
2013-03-13 17:44:00,75.0,33.6,29.23,SSE,155,1.1,3.4,22,0.00,,,0.00,WSDL version 420,2013-03-13 22:44:00,
2013-03-13 17:49:00,74.6,33.3,29.23,SSW,200,0.7,2.5,22,0.00,,,0.00,WSDL version 420,2013-03-13 22:49:00,
2013-03-13 17:54:00,74.3,33.1,29.23,NE,48,2.2,3.8,22,0.00,,,0.00,WSDL version 420,2013-03-13 22:54:00,
2013-03-13 17:59:00,73.7,32.5,29.23,SW,218,1.1,3.8,22,0.00,,,0.00,WSDL version 420,2013-03-13 22:59:00,
2013-03-13 18:04:00,73.6,32.4,29.23,ENE,65,1.2,3.1,22,0.00,,,0.00,WSDL version 420,2013-03-13 23:04:00,
2013-03-13 18:09:00,73.2,32.1,29.23,SSW,208,1.6,3.1,22,0.00,,,0.00,WSDL version 420,2013-03-13 23:09:00,
2013-03-13 18:14:00,72.7,31.7,29.23,South,180,0.4,3.1,22,0.00,,,0.00,WSDL version 420,2013-03-13 23:14:00,
2013-03-13 18:21:00,72.4,31.4,29.23,NE,48,1.0,3.6,22,0.00,,,0.00,WSDL version 420,2013-03-13 23:21:00,
2013-03-13 18:26:00,72.2,31.3,29.23,East,90,0.4,3.8,22,0.00,,,0.00,WSDL version 420,2013-03-13 23:26:00,
2013-03-13 18:31:00,72.2,31.3,29.23,WSW,239,0.9,3.8,22,0.00,,,0.00,WSDL version 420,2013-03-13 23:31:00,
2013-03-13 18:36:00,72.0,31.1,29.23,NE,40,0.6,2.5,22,0.00,,,0.00,WSDL version 420,2013-03-13 23:36:00,
2013-03-13 18:41:00,71.6,31.1,29.23,West,273,0.0,2.5,23,0.00,,,0.00,WSDL version 420,2013-03-13 23:41:00,
2013-03-13 18:46:00,71.1,31.5,29.23,NE,45,1.6,2.9,23,0.00,,,0.00,WSDL version 420,2013-03-13 23:46:00,
2013-03-13 18:51:00,70.6,31.0,29.23,ENE,63,0.6,2.9,23,0.00,,,0.00,WSDL version 420,2013-03-13 23:51:00,
2013-03-13 18:56:00,70.3,30.8,29.23,NNE,25,0.6,2.9,23,0.00,,,0.00,WSDL version 420,2013-03-13 23:56:00,
2013-03-13 19:01:00,70.0,30.5,29.23,NNE,25,0.5,2.9,23,0.00,,,0.00,WSDL version 420,2013-03-14 00:01:00,
2013-03-13 19:06:00,69.6,30.2,29.23,North,357,0.0,2.7,23,0.00,,,0.00,WSDL version 420,2013-03-14 00:06:00,
2013-03-13 19:11:00,69.2,29.9,29.23,NE,43,0.8,2.0,23,0.00,,,0.00,WSDL version 420,2013-03-14 00:11:00,
2013-03-13 19:16:00,68.9,29.6,29.23,East,93,0.0,2.0,23,0.00,,,0.00,WSDL version 420,2013-03-14 00:16:00,
2013-03-13 19:21:00,68.5,29.2,29.23,WSW,248,0.0,1.1,23,0.00,,,0.00,WSDL version 420,2013-03-14 00:21:00,
2013-03-13 19:26:00,68.0,29.1,29.23,WSW,248,0.0,0.0,24,0.00,,,0.00,WSDL version 420,2013-03-14 00:26:00,
2013-03-13 19:31:00,67.6,29.5,29.23,WSW,248,0.0,0.0,24,0.00,,,0.00,WSDL version 420,2013-03-14 00:31:00,
2013-03-13 19:38:00,66.9,29.0,29.23,ENE,68,0.0,0.0,24,0.00,,,0.00,WSDL version 420,2013-03-14 00:38:00,
2013-03-13 19:43:00,66.4,28.9,29.23,ENE,68,0.0,0.0,25,0.00,,,0.00,WSDL version 420,2013-03-14 00:43:00,
2013-03-13 19:48:00,65.8,29.1,29.23,ENE,68,0.0,0.0,25,0.00,,,0.00,WSDL version 420,2013-03-14 00:48:00,
2013-03-13 19:53:00,65.3,28.6,29.23,ENE,68,0.0,0.0,25,0.00,,,0.00,WSDL version 420,2013-03-14 00:53:00,
2013-03-13 19:58:00,64.4,27.9,29.23,ENE,68,0.0,0.0,25,0.00,,,0.00,WSDL version 420,2013-03-14 00:58:00,
2013-03-13 20:03:00,63.9,28.3,29.23,ENE,68,0.0,0.0,26,0.00,,,0.00,WSDL version 420,2013-03-14 01:03:00,
2013-03-13 20:08:00,63.3,27.9,29.23,ENE,68,0.0,0.0,26,0.00,,,0.00,WSDL version 420,2013-03-14 01:08:00,
2013-03-13 20:13:00,63.1,27.6,29.23,ENE,68,0.0,0.0,26,0.00,,,0.00,WSDL version 420,2013-03-14 01:13:00,
2013-03-13 20:18:00,62.7,27.4,29.23,ENE,68,0.0,0.0,26,0.00,,,0.00,WSDL version 420,2013-03-14 01:18:00,
2013-03-13 20:28:00,61.6,27.3,29.26,ENE,68,0.0,0.0,27,0.00,,,0.00,WSDL version 420,2013-03-14 01:28:00,
2013-03-13 20:33:00,61.2,26.9,29.26,ENE,68,0.0,0.0,27,0.00,,,0.00,WSDL version 420,2013-03-14 01:33:00,
2013-03-13 20:38:00,60.8,27.3,29.26,ENE,68,0.0,0.0,28,0.00,,,0.00,WSDL version 420,2013-03-14 01:38:00,
2013-03-13 20:43:00,60.3,27.1,29.23,ENE,68,0.0,0.0,28,0.00,,,0.00,WSDL version 420,2013-03-14 01:43:00,
2013-03-13 20:48:00,60.2,27.0,29.23,ENE,68,0.0,0.0,28,0.00,,,0.00,WSDL version 420,2013-03-14 01:48:00,
2013-03-13 20:53:00,59.5,27.1,29.23,ENE,68,0.0,0.0,29,0.00,,,0.00,WSDL version 420,2013-03-14 01:53:00,
2013-03-13 20:58:00,58.7,27.2,29.23,ENE,68,0.0,0.0,30,0.00,,,0.00,WSDL version 420,2013-03-14 01:58:00,
2013-03-13 21:03:00,58.8,27.4,29.23,ENE,68,0.0,0.0,30,0.00,,,0.00,WSDL version 420,2013-03-14 02:03:00,
2013-03-13 21:08:00,58.8,28.0,29.23,ENE,68,0.0,0.0,31,0.00,,,0.00,WSDL version 420,2013-03-14 02:08:00,
2013-03-13 21:13:00,58.6,28.5,29.23,ENE,68,0.0,0.0,32,0.00,,,0.00,WSDL version 420,2013-03-14 02:13:00,
2013-03-13 21:18:00,58.2,28.8,29.23,ENE,68,0.0,0.0,33,0.00,,,0.00,WSDL version 420,2013-03-14 02:18:00,
2013-03-13 21:23:00,58.0,29.2,29.23,ENE,68,0.0,0.0,33,0.00,,,0.00,WSDL version 420,2013-03-14 02:23:00,
2013-03-13 21:28:00,57.7,29.5,29.23,ENE,68,0.0,0.0,34,0.00,,,0.00,WSDL version 420,2013-03-14 02:28:00,
2013-03-13 21:33:00,57.6,29.4,29.23,ENE,68,0.0,0.0,34,0.00,,,0.00,WSDL version 420,2013-03-14 02:33:00,
2013-03-13 21:38:00,57.4,29.5,29.23,ENE,68,0.0,0.0,34,0.00,,,0.00,WSDL version 420,2013-03-14 02:38:00,
2013-03-13 21:43:00,57.3,29.9,29.26,ENE,68,0.0,0.0,35,0.00,,,0.00,WSDL version 420,2013-03-14 02:43:00,
2013-03-13 21:48:00,57.2,29.8,29.26,NE,38,0.0,0.9,35,0.00,,,0.00,WSDL version 420,2013-03-14 02:48:00,
2013-03-13 21:53:00,57.6,30.2,29.26,West,270,0.0,0.9,35,0.00,,,0.00,WSDL version 420,2013-03-14 02:53:00,
2013-03-13 21:58:00,57.7,30.2,29.26,NW,315,0.0,1.3,35,0.00,,,0.00,WSDL version 420,2013-03-14 02:58:00,
2013-03-13 22:03:00,57.7,30.2,29.26,NW,315,0.0,1.3,35,0.00,,,0.00,WSDL version 420,2013-03-14 03:03:00,
2013-03-13 22:08:00,57.8,30.3,29.26,NW,323,0.0,0.9,35,0.00,,,0.00,WSDL version 420,2013-03-14 03:08:00,
2013-03-13 22:13:00,57.7,30.3,29.26,NE,45,0.0,0.9,35,0.00,,,0.00,WSDL version 420,2013-03-14 03:13:00,
2013-03-13 22:18:00,57.7,30.3,29.26,ESE,115,0.6,2.0,35,0.00,,,0.00,WSDL version 420,2013-03-14 03:18:00,
2013-03-13 22:23:00,57.7,30.3,29.26,West,270,0.0,2.0,35,0.00,,,0.00,WSDL version 420,2013-03-14 03:23:00,
2013-03-13 22:28:00,57.9,30.4,29.26,WNW,293,0.0,0.9,35,0.00,,,0.00,WSDL version 420,2013-03-14 03:28:00,
2013-03-13 22:33:00,57.9,30.4,29.26,NW,315,0.0,0.9,35,0.00,,,0.00,WSDL version 420,2013-03-14 03:33:00,
2013-03-13 22:38:00,57.7,30.3,29.26,NW,315,0.0,0.0,35,0.00,,,0.00,WSDL version 420,2013-03-14 03:38:00,
2013-03-13 22:43:00,57.7,30.3,29.26,NW,315,0.0,0.0,35,0.00,,,0.00,WSDL version 420,2013-03-14 03:43:00,
2013-03-13 22:48:00,57.7,30.3,29.26,NW,315,0.0,0.0,35,0.00,,,0.00,WSDL version 420,2013-03-14 03:48:00,
2013-03-13 22:53:00,57.8,30.3,29.26,NW,315,0.0,0.0,35,0.00,,,0.00,WSDL version 420,2013-03-14 03:53:00,
2013-03-13 22:58:00,57.7,30.2,29.26,NW,315,0.0,0.0,35,0.00,,,0.00,WSDL version 420,2013-03-14 03:58:00,
2013-03-13 23:03:00,57.6,30.1,29.26,NW,315,0.0,0.0,35,0.00,,,0.00,WSDL version 420,2013-03-14 04:03:00,
2013-03-13 23:08:00,57.5,30.1,29.26,WNW,293,0.0,0.0,35,0.00,,,0.00,WSDL version 420,2013-03-14 04:08:00,
2013-03-13 23:13:00,57.1,29.7,29.29,WNW,293,0.0,0.0,35,0.00,,,0.00,WSDL version 420,2013-03-14 04:13:00,
2013-03-13 23:23:00,56.8,29.5,29.29,WNW,293,0.0,0.0,35,0.00,,,0.00,WSDL version 420,2013-03-14 04:23:00,
2013-03-13 23:28:00,56.5,29.9,29.26,WNW,293,0.0,0.0,36,0.00,,,0.00,WSDL version 420,2013-03-14 04:28:00,
2013-03-13 23:33:00,56.6,30.0,29.26,WNW,293,0.0,0.0,36,0.00,,,0.00,WSDL version 420,2013-03-14 04:33:00,
2013-03-13 23:38:00,56.5,29.8,29.26,NNW,341,0.0,0.0,36,0.00,,,0.00,WSDL version 420,2013-03-14 04:38:00,
2013-03-13 23:43:00,56.3,29.7,29.26,South,188,0.0,1.1,36,0.00,,,0.00,WSDL version 420,2013-03-14 04:43:00,
2013-03-13 23:53:00,56.3,29.7,29.26,NNE,23,0.0,1.1,36,0.00,,,0.00,WSDL version 420,2013-03-14 04:53:00,
2013-03-13 23:58:00,56.2,29.7,29.29,ESE,113,0.0,0.9,36,0.00,,,0.00,WSDL version 420,2013-03-14 04:58:00,